www.pogodaiklimat.ru

Погода и климат >> Архив погоды >> Россия >> Иркутская область >> Новая Игирма


ПОГОДА в Новой Игирме

АРХИВ ПОГОДЫ в Новой Игирме

Время (UTC), дата Ветер
(напр.,м/с)
 
Видим.   Явления Облачность Т
(С)
Тd
(С)
f
(%)
Тe
(С)
Тes
(С)
Комфортность P
(гПа)
Po
(гПа)
Тmin
(С)
Tmax
(С)
R
(мм)
R24
(мм)
S
(см)
18 16.09 ЮВ 1 н/о 8/0
[Ac lent Ci fib]
-1.3 -2.5 92 -4 -4 1025.5 984.8
21 16.09 Ю 1 н/о 10/4 600 м
[Cb cap Ac lent Ci fib]
-0.5 -2.8 84 -3 -3 1025.5 984.9
00 17.09 ЮЗ 1 50 км 10/0
[Ac As]
+1.2 -2.3 77 -0 -0 1025.2 984.9 -2.0
03 17.09 Ю 2 50 км 10/0
[Ac As]
+4.1 -0.7 71 +2 +3 1024.6 984.7
09 17.09 ЮВ 2 50 км 10/3 600 м
[Sc Ac As]
+9.8 +3.4 64 +9 +9 1021.2 982.3
18 17.09 штиль 0 н/о ясно +2.5 +1.6 94 +1 +1 1020.4 980.4
21 17.09 штиль 0 н/о дымка ясно +0.7 0.0 95 -1 -1 1019.2 979.0
00 18.09 СВ 1 4000 м дымка {туман} 8/0
[Ac trans Ci]
+2.5 +1.2 91 +1 +1 1017.7 977.9 +0.2
03 18.09 ЮЗ 3 50 км 4/1 600 м
[Cb cap Ac trans]
+12.3 +6.1 66 +11 +14 1014.8 976.5
06 18.09 ЮЗ 4 50 км 1/1 600 м
[Cb cap]
+17.0 +8.0 55 +17 +20 1012.8 975.2
09 18.09 ЮЗ 3 50 км 5/4 600 м
[Cb cap Ci fib]
+19.3 +7.1 45 +20 +21 1011.0 973.7
12 18.09 ЮЗ 3
{10}
н/о слаб. ливневой дождь 10/10 600 м
[Cb cap]
+12.5 +10.8 89 +11 +11 1012.6 974.4 +19.6 1
15 18.09 З 5-10
{11}
н/о {ливн. осадки} 10/10 600 м
[Cb cap]
+11.7 +8.7 82 +9 +9 1014.6 976.2
18 18.09 З 4
{10}
н/о {ливн. осадки} 10/10 600 м
[Cb cap]
+11.1 +8.1 82 +9 +9 1016.0 977.5
21 18.09 ЮЗ 2
{10}
н/о 9/9 600 м
[Cb cap]
+10.0 +7.7 86 +8 +8 1017.0 978.3
00 19.09 Ю 2 50 км 10/5 600 м
[Cb cap As op]
+9.1 +7.5 90 +7 +7 1018.1 979.2 +8.8 3
03 19.09 З 3 50 км {ливн. осадки} 9/9 600 м
[Cb cap]
+11.6 +8.2 80 +10 +10 1018.8 980.2
06 19.09 З 3 50 км {ливн. осадки} 10/8 600 м
[Cb cap Ac trans Ci fib]
+14.0 +7.6 65 +13 +14 1018.5 980.3
09 19.09 ЮЗ 2
{10}
50 км в посл. час ливневой дождь 8/6 600 м
[Cb cap Ac trans]
+11.8 +9.9 88 +11 +11 1019.1 980.6
12 19.09 Ю 2 н/о {ливн. осадки} 6/1 600 м
[Cb cap Ac trans Ci fib]
+9.7 +8.4 92 +8 +8 1020.0 981.1 +14.5 1
15 19.09 В 1 н/о 3/0
[Ci fib]
+6.5 +6.0 97 +5 +5 1020.7 981.4
18 19.09 штиль 0 н/о дымка 8/0
[Ac trans Ci fib]
+6.4 +6.0 97 +5 +5 1019.6 980.3
21 19.09 ЮЗ 1 н/о в посл. час ливневой дождь 10/10 600 м
[Cb cap]
+7.4 +6.7 95 +6 +6 1018.2 979.1
00 20.09 ЮЗ 2 50 км в посл. час ливневой дождь 10/10 600 м
[Cb cap]
+9.8 +7.9 88 +8 +8 1016.8 978.0 +5.4 0.3
03 20.09 ЮЗ 4 50 км 10/0
[Ci fib]
+15.2 +9.3 68 +14 +17 1015.6 977.7
09 20.09 З 1 50 км 10/1 600 м
[Cb cap Ac As]
+20.8 +10.3 51 +24 +24 комфорт 1013.2 976.0
12 20.09 ЮЗ 2 н/о 5/3 600 м
[Sc Cc]
+17.0 +10.5 66 +17 +17 1013.2 975.6 +21.1
15 20.09 С 1 н/о 8/0
[Ac trans Ci fib]
+10.6 +8.8 89 +10 +10 1013.9 975.4
18 20.09 Ю 1 н/о 4/0
[Ci fib]
+9.5 +8.1 91 +9 +9 1012.7 974.1
21 20.09 ЮЗ 2 н/о ясно +9.5 +6.9 84 +8 +8 1011.3 972.7
00 21.09 ЮЗ 3 50 км 6/0
[Ac trans Cc]
+12.1 +7.6 74 +11 +11 1010.9 972.7 +8.2
03 21.09 ЮЗ 2 50 км 10/6 600 м
[Cb cap Ac trans Ci fib]
+16.8 +9.3 61 +17 +18 1011.4 973.8
06 21.09 ЮЗ 4 50 км 10/8 600 м
[Cb cap Ac trans Ci fib]
+19.9 +8.9 49 +21 +21 комфорт 1011.5 974.3
12 21.09 ЮЗ 3
{10}
н/о {гроза} 10/10 600 м
[Cb cap]
+16.7 +4.7 45 +17 +17 1013.7 976.0 +21.5
00 22.09 штиль 0 50 км 3/0
[Ac lent]
+5.5 +1.3 74 +5 +5 1024.9 985.2 +3.6
06 22.09 З 4 50 км 10/5 600 м
[Cb cap Cc]
+13.2 +2.0 47 +12 +13 1024.8 986.2

 

Местоположение метеостанции Новая Игирма (Иркутская область, Россия): широта 57.11 долгота 103.90 высота над уровнем моря 324 м.

В архиве по умолчанию представлена погода в Новой Игирме за последнюю неделю. Архивные данные за месяц целиком и за предыдущие месяцы, начиная с января 2011 года, Вы можете получить, выбрав интересующий диапазон дат из раскрывающегося списка и нажав кнопку "Ввод!".


*Определитесь, кто Вы:
робот инопланетянин человек

Внимание! Время в таблицах - всемирное. Для получения местного времени необходимо прибавить поправку, которая равна 8 ч.

Смотрите также архив погоды в соседних городах и на ближайших метеорологических станциях:

Погода в Максимово (Иркутская область, Россия) (60 км)
Погода в Ершово (Иркутская область, Россия) (97 км)
Погода в Усть-Куте (Иркутская область, Россия) (120 км)
Погода в Заярске (Иркутская область, Россия) (122 км)
Погода в Усть-Илимске (Иркутская область, Россия) (124 км)
Погода в Братске (Иркутская область, Россия) (163 км)
Погода в Токме (Иркутская область, Россия) (164 км)
Погода в Орлинге (Иркутская область, Россия) (166 км)
Погода в Калтуке (Иркутская область, Россия) (209 км)
Погода в Казачинске (Иркутская область, Россия) (242 км)

Пояснения к столбцам:

Ветер - указаны скорость ветра в м/с - средняя за 10 мин, порывы в срок и между сроками (в фигурных скобках) и направление, откуда дует ветер: С - северный, СВ - северо-восточный, В - восточный, ЮВ - юго-восточный, Ю - южный, ЮЗ - юго-западный, З - западный, СЗ - северо-западный.
Видимость - горизонтальная дальность видимости в метрах или километрах. При видимости от 1 до 10 км при отсутствии осадков обычно наблюдается дымка, при ухудшении видимости до 1 км и менее - туман. В сухую погоду видимость может ухудшаться дымом, пылью или мглою.
Явления - указаны атмосферные явления, наблюдавшиеся в срок или в последний час перед сроком; фигурными скобками обозначены явления, наблюдавшиеся между сроками (за 1-3 часа до срока); квадратными скобками обозначены град или гололедные отложения с указанием их диаметра в мм.
Облачность - указаны через наклонную черту общая и нижняя облачность в баллах и высота нижней границы облаков в метрах; квадратными скобками обозначены формы облаков: Ci - перистые, Cs - перисто-слоистые, Cc - перисто-кучевые, Ac - высококучевые, As - высокослоистые, Sc - слоисто-кучевые, Ns - слоисто-дождевые, Cu - кучевые, Cb - кучево-дождевые. Подробнее классификацию облаков см. в Атласе облаков (PDF).
T - Температура воздуха - температура, измеренная на высоте 2 м над землей.
Td - Температура точки росы - температура, при понижении до которой содержащийся в воздухе водяной пар достигнет насыщения.
f - Относительная влажность воздуха - влажноcть воздуха, измеренная на высоте 2 м над землей.
Te - Эффективная температура - температура, которую ощущает одетый по сезону человек в тени. Характеристика душности погоды. При расчете учитывается влияние влажности воздуха и скорости ветра на теплоощущения человека.
Tes - Эффективная температура на солнце - температура, которую ощущает человек, с поправкой на солнечный нагрев. Характеристика знойности погоды. Зависит от высоты солнца над горизонтом, облачности и скорости ветра. Ночью, в пасмурную погоду, а также при ветре 12 м/с и более поправка равна нулю.
P - Атмосферное давление - приведенное к уровню моря атмосферное давление.
Po - Атмосферное давление - измеренное на уровне метеостанции атмосферное давление.
Tmin - Минимальная температура - минимум температуры воздуха на высоте 2 м над землей.
Tmax - Максимальная температура - максимум температуры воздуха на высоте 2 м над землей.
R - Количество осадков - Количество выпавших осадков за период времени, мм. При наведении курсора мыши на число - период времени, за который выпало указанное количество осадков.
R24 - Количество осадков - Количество выпавших осадков за 24 часа, мм.
S - Снежный покров - Высота снежного покрова, см. При наведении курсора мыши на число - состояние снежного покрова и степень покрытия местности в баллах.